CAPE
278 204 215 0 0 0 0 0 1 0 0 0 0 0 0 0 0 0 0 0 0 0 0 0 0 15 20 26 42 37 14 25 19 2 0 24 25 24 18 8 11 18 3
542 232 44 0 0 0 0 0 2 0 0 0 0 0 0 0 0 0 0 0 0 0 0 1 3 8 31 41 47 27 16 5 0 0 0 9 17 35 4 4 11 17 0
46 2 4 0 0 0 0 0 0 0 0 0 0 0 0 0 0 0 0 0 0 1 9 12 23 30 42 21 2 0 0 0 0 3 4 3 2 0 0 0 3 26 1
3 0 0 0 0 0 0 0 0 0 0 0 0 0 0 0 0 0 0 2 8 11 15 14 7 0 0 2 3 0 2 5 1 1 4 4 2 1 3 13 9 9 7
34 26 14 50 0 0 0 0 0 0 0 0 0 0 0 0 0 0 1 6 2 2 0 0 0 0 0 0 0 2 2 2 2 3 2 2 2 7 2 1 13 30 2
163 64 77 67 0 0 0 0 0 0 0 0 0 0 0 0 0 0 0 0 0 0 0 0 0 0 1 4 2 3 7 3 4 8 3 3 1 2 1 21 2 4 2
289 122 151 0 0 0 0 0 0 0 0 0 0 0 0 0 0 0 0 0 0 0 0 0 0 2 3 4 6 4 2 6 7 6 2 2 2 0 1 0 4 1 4
300 260 3 0 0 1 7 5 0 0 0 0 0 0 0 0 0 0 0 0 0 0 1 3 3 4 6 1 4 4 6 12 17 7 2 10 9 11 8 6 0 3 2
529 461 36 11 0 19 12 3 0 0 0 0 0 0 0 0 0 0 0 0 0 0 2 0 3 10 0 0 2 2 4 8 11 7 4 0 0 0 3 4 3 1 3
395 358 134 61 58 15 0 0 0 0 0 0 0 0 0 0 0 0 0 0 0 1 1 4 1 3 0 0 2 5 7 10 7 4 0 0 1 7 2 2 0 2 2
470 287 117 35 0 0 0 0 0 0 0 0 0 0 0 0 1 0 0 1 1 1 3 2 4 0 0 0 0 6 2 5 2 2 0 2 0 3 2 3 2 0 2
510 4 0 0 0 0 0 0 0 0 0 0 0 0 0 1 0 0 0 1 2 3 3 3 4 0 1 1 5 0 0 3 1 1 0 1 2 2 1 1 1 4 3
6 0 0 0 0 0 0 0 0 0 0 0 0 0 0 1 2 0 1 1 1 2 3 2 1 1 1 2 1 2 3 2 1 0 2 4 1 1 1 2 3 4 1
0 0 0 0 0 0 0 0 0 0 0 0 0 0 1 1 2 5 4 2 1 3 3 3 2 1 4 2 1 4 2 2 1 1 4 2 0 0 1 1 1 1 0
0 0 0 0 0 0 0 0 0 0 0 0 1 1 2 3 2 0 0 1 1 1 2 1 0 1 2 1 1 3 1 1 4 4 4 1 1 0 1 1 1 0 3
0 0 0 0 0 0 0 0 0 0 0 0 0 0 6 0 0 0 0 0 0 0 1 0 0 1 1 1 0 0 0 0 4 3 0 1 0 0 0 1 0 4 4
0 0 0 0 0 0 0 0 0 1 0 0 0 0 0 0 0 0 0 0 1 3 1 1 0 1 0 1 1 0 1 2 1 1 1 0 1 1 1 0 0 1 5
0 0 0 0 0 0 0 0 0 0 1 3 0 0 0 0 0 0 0 1 3 2 2 1 0 1 1 1 1 1 1 1 1 2 0 2 2 1 0 0 0 3 4
0 0 0 0 0 0 0 0 0 0 2 2 2 0 0 0 0 0 1 3 3 3 1 1 1 1 1 0 0 0 1 1 1 1 2 2 1 0 0 2 1 0 1
0 0 0 0 0 0 0 0 0 2 3 3 1 0 1 2 2 2 2 1 2 2 1 1 1 0 0 0 0 1 0 1 1 0 0 0 0 0 1 0 1 1 1
0 0 0 0 0 0 0 0 1 2 3 3 0 0 0 2 2 1 1 1 1 1 1 1 1 0 0 0 1 1 1 1 0 0 0 0 0 0 0 0 1 1 1
0 0 0 0 0 0 0 1 2 2 3 0 1 0 0 1 1 1 1 1 1 1 1 3 1 0 0 0 1 1 0 0 0 0 0 0 0 0 0 0 0 2 5
0 0 0 0 0 0 1 2 3 3 2 1 2 0 0 1 2 0 1 1 2 2 3 4 4 0 0 0 1 1 0 0 0 0 0 0 0 0 0 0 0 0 0
0 0 0 0 0 1 0 4 2 1 2 1 1 0 0 1 2 1 1 2 1 2 4 4 4 3 2 0 0 0 0 0 2 20 11 19 18 19 15 7 5 12 5
0 0 0 0 3 1 1 1 2 3 2 1 1 1 1 1 0 0 0 1 2 4 3 3 3 3 0 0 0 0 0 0 0 0 2 0 0 0 1 0 0 2 6
0 0 0 2 1 0 0 1 3 3 2 2 1 2 2 1 1 0 0 1 0 1 1 2 2 1 0 0 0 0 0 0 0 0 3 10 12 30 42 6 4 5 15
CIN
-473 -391 -292 -0 -0 -0 -0 -0 -0 -0 -0 -0 -0 -0 -0 -0 -0 -0 -0 -0 -0 -0 -4 -0 -0 -12 -4 -1 -8 -26 -14 -3 -1 -5 -0 -2 -1 -1 -0 -1 -1 -0 -1
-403 -382 -415 -0 -0 -0 -0 -0 -0 -0 -0 -0 -0 -0 -0 -0 -0 -0 -0 -0 -0 -0 -0 -1 -2 -2 -3 -3 -5 -22 -15 -27 -0 -0 -0 -1 -1 -1 -1 -5 -1 -0 -0
-487 -135 -211 -0 -0 -0 -0 -0 -0 -0 -0 -0 -0 -0 -0 -0 -0 -0 -0 -0 -0 -1 -7 -12 -12 -12 -21 -33 -16 -0 -7 -0 -0 -6 -1 -0 -2 -0 -0 -0 -1 -0 -1
-270 -0 -0 -0 -0 -0 -0 -0 -0 -0 -0 -0 -0 -0 -0 -0 -0 -0 -0 -5 -14 -14 -25 -28 -13 -0 -0 -25 -7 -0 -0 -0 -0 -0 -0 -0 -0 -0 -0 -0 -0 -0 -0
-445 -468 -516 -420 -0 -0 -0 -0 -0 -0 -0 -0 -0 -0 -0 -0 -0 -0 -4 -24 -7 -8 -0 -0 -0 -0 -0 -0 -0 -0 -0 -0 -0 -0 -0 -0 -0 -0 -0 -0 -0 -0 -14
-248 -382 -295 -294 -0 -0 -0 -0 -0 -0 -0 -0 -0 -0 -0 -0 -0 -0 -0 -0 -0 -0 -0 -0 -0 -0 -0 -0 -0 -0 -0 -0 -0 -0 -0 -0 -0 -0 -0 -0 -0 -0 -0
-163 -245 -185 -40 -0 -0 -0 -5 -0 -0 -0 -0 -0 -0 -0 -0 -0 -0 -0 -0 -0 -0 -0 -0 -0 -0 -0 -0 -0 -0 -0 -0 -0 -0 -0 -0 -0 -0 -0 -0 -0 -0 -0
-101 -116 -103 -0 -0 -1 -8 -7 -0 -0 -0 -0 -0 -0 -0 -0 -0 -0 -0 -0 -0 -0 -0 -0 -0 -0 -0 -0 -0 -1 -1 -0 -0 -0 -0 -0 -0 -0 -0 -0 -0 -0 -0
-10 -34 -184 -196 -0 -81 -10 -11 -0 -0 -0 -0 -0 -0 -0 -0 -0 -0 -0 -0 -0 -0 -0 -0 -0 -0 -0 -0 -0 -0 -0 -0 -0 -0 -0 -0 -0 -0 -0 -0 -0 -0 -0
-23 -41 -70 -71 -49 -33 -0 -0 -0 -0 -0 -0 -0 -0 -0 -0 -0 -0 -0 -0 -0 -0 -0 -0 -1 -0 -0 -0 -0 -0 -0 -0 -0 -0 -0 -1 -2 -0 -0 -1 -0 -0 -2
-40 -40 -63 -59 -0 -0 -0 -0 -0 -0 -0 -0 -0 -0 -0 -0 -0 -0 -0 -0 -0 -0 -0 -0 -0 -0 -0 -0 -0 -0 -0 -0 -0 -0 -0 -0 -0 -0 -0 -0 -0 -0 -0
-22 -26 -0 -0 -0 -0 -0 -0 -0 -0 -0 -0 -0 -0 -0 -0 -0 -0 -0 -0 -0 -0 -0 -0 -0 -0 -0 -0 -0 -0 -0 -0 -0 -0 -0 -0 -0 -0 -0 -0 -1 -0 -0
-99 -0 -0 -0 -0 -0 -0 -0 -0 -0 -0 -0 -0 -0 -0 -0 -0 -0 -0 -0 -0 -0 -0 -0 -0 -0 -0 -0 -0 -0 -0 -0 -0 -0 -0 -0 -0 -0 -0 -0 -0 -0 -0
-0 -0 -0 -0 -0 -0 -0 -0 -0 -0 -0 -0 -0 -0 -0 -0 -0 -0 -0 -0 -0 -0 -0 -0 -0 -0 -0 -0 -0 -0 -0 -0 -0 -0 -0 -0 -0 -0 -0 -0 -0 -0 -0
-0 -0 -0 -0 -0 -0 -0 -0 -0 -0 -0 -0 -0 -0 -0 -0 -0 -0 -0 -0 -0 -0 -0 -0 -0 -0 -0 -1 -0 -0 -0 -0 -0 -0 -0 -0 -0 -0 -0 -0 -0 -0 -0
-0 -0 -0 -0 -0 -0 -0 -0 -0 -0 -0 -0 -0 -0 -0 -0 -0 -0 -0 -0 -0 -0 -1 -0 -0 -0 -0 -0 -0 -0 -0 -0 -0 -0 -0 -0 -0 -0 -0 -0 -0 -0 -0
-0 -0 -0 -0 -0 -0 -0 -0 -0 -0 -0 -0 -0 -0 -0 -0 -0 -0 -0 -0 -1 -0 -0 -1 -0 -1 -0 -0 -0 -0 -0 -0 -0 -0 -0 -0 -0 -0 -0 -0 -3 -1 -0
-0 -0 -0 -0 -0 -0 -0 -0 -0 -0 -0 -0 -0 -0 -0 -0 -0 -0 -0 -0 -0 -0 -0 -0 -0 -0 -0 -0 -0 -0 -0 -0 -0 -0 -0 -0 -0 -0 -0 -0 -0 -0 -0
-0 -0 -0 -0 -0 -0 -0 -0 -0 -0 -0 -0 -0 -0 -0 -0 -0 -0 -0 -0 -0 -0 -0 -0 -0 -0 -0 -0 -0 -0 -0 -0 -0 -0 -0 -0 -0 -0 -0 -0 -0 -0 -0
-0 -0 -0 -0 -0 -0 -0 -0 -0 -0 -0 -0 -0 -0 -0 -0 -0 -0 -0 -0 -0 -0 -0 -0 -0 -0 -0 -0 -0 -0 -0 -0 -0 -0 -0 -0 -0 -0 -0 -0 -0 -0 -0
-0 -0 -0 -0 -0 -0 -0 -0 -0 -0 -0 -0 -0 -0 -0 -0 -0 -0 -0 -0 -0 -0 -0 -0 -0 -0 -0 -0 -0 -0 -0 -0 -0 -0 -0 -0 -0 -0 -0 -0 -0 -0 -0
-0 -0 -0 -0 -0 -0 -0 -1 -0 -0 -0 -0 -0 -0 -0 -0 -0 -0 -0 -0 -0 -0 -0 -0 -0 -0 -0 -0 -0 -0 -0 -0 -0 -0 -0 -0 -0 -0 -0 -0 -0 -2 -0
-0 -0 -0 -0 -0 -0 -0 -0 -0 -0 -0 -0 -0 -0 -0 -0 -0 -0 -0 -0 -0 -0 -0 -0 -0 -0 -0 -0 -0 -0 -0 -0 -0 -0 -0 -3 -0 -0 -0 -1 -0 -0 -0
-0 -0 -0 -0 -0 -0 -1 -0 -0 -0 -0 -0 -0 -0 -0 -0 -0 -0 -0 -0 -0 -0 -0 -0 -0 -0 -0 -0 -0 -0 -0 -0 -9 -0 -4 -0 -1 -0 -0 -2 -7 -0 -3
-0 -0 -0 -0 -1 -1 -1 -0 -0 -0 -0 -0 -0 -0 -0 -0 -0 -0 -0 -0 -0 -0 -0 -0 -0 -0 -0 -0 -0 -0 -0 -0 -0 -0 -15 -19 -24 -2 -13 -0 -0 -17 -13
-0 -0 -0 -1 -1 -0 -0 -0 -0 -0 -0 -0 -0 -0 -0 -0 -0 -0 -0 -0 -0 -0 -0 -0 -0 -0 -0 -0 -0 -0 -0 -0 -0 -0 -17 -16 -14 -0 -0 -11 -16 -11 -0
Wind_Speed
22 26 31 32 33 32 27 26 15 11 9 8 8 10 10 10 12 15 17 19 21 22 22 21 23 23 24 25 25 25 28 30 31 32 32 31 28 29 26 26 29 27 27
26 30 30 30 31 29 27 22 17 14 13 12 11 11 12 13 15 17 19 21 22 23 23 25 26 28 28 28 28 30 30 29 31 34 31 31 29 27 26 29 29 26 25
30 32 28 26 25 26 23 20 18 15 14 14 13 14 15 16 18 19 21 22 22 23 25 27 29 31 31 32 33 33 32 30 29 31 33 30 28 28 28 29 24 23 22
31 30 26 23 22 22 20 18 16 15 15 15 16 17 18 19 20 21 21 22 24 25 27 29 31 33 34 35 34 32 30 31 32 32 31 31 29 27 24 26 21 21 20
30 25 22 21 21 20 18 16 14 12 12 16 19 20 21 22 24 25 24 25 27 29 29 31 32 35 34 34 33 33 33 33 32 32 31 31 29 24 22 20 22 21 19
27 24 20 19 18 18 15 14 12 12 14 19 21 22 24 25 28 28 27 27 28 30 33 34 36 35 36 34 33 32 30 31 31 30 28 27 27 21 21 19 22 20 19
27 21 20 19 17 17 13 13 14 16 18 20 22 23 24 25 28 29 30 29 31 34 35 37 37 36 35 33 30 30 29 28 26 26 26 25 22 20 20 21 19 17 19
27 23 20 19 19 15 13 14 17 18 19 22 24 23 24 27 29 32 32 32 34 36 37 36 36 34 32 34 32 29 29 28 27 25 23 22 20 20 20 16 11 14 14
28 23 20 17 17 15 14 16 17 18 21 23 23 24 25 27 32 34 36 35 36 37 34 33 34 32 34 34 31 29 28 26 25 25 20 19 16 8 6 7 8 9 13
29 23 21 17 13 13 14 16 18 19 21 22 24 24 26 28 34 37 39 35 36 35 33 31 31 32 33 32 28 25 26 25 27 25 22 22 18 16 18 13 13 13 14
26 23 18 16 14 13 16 18 18 20 21 22 23 25 28 31 33 38 38 36 35 34 33 32 31 32 30 28 26 26 26 27 25 20 20 21 20 18 16 14 13 16 16
25 21 16 15 15 16 18 19 20 22 23 23 25 27 29 32 35 36 36 36 34 33 32 31 30 30 28 26 26 27 26 25 23 21 21 22 17 9 11 13 15 16 17
19 15 15 17 15 18 19 21 21 22 24 27 28 30 31 31 33 35 35 35 35 33 31 30 30 28 26 25 27 26 23 23 19 19 18 7 7 9 10 11 13 15 15
14 13 16 15 15 19 19 21 23 25 27 28 29 30 30 32 34 34 34 34 34 32 30 29 28 27 26 25 24 20 8 9 8 8 7 7 8 9 11 11 12 12 13
13 14 15 16 16 19 18 21 23 27 28 27 29 30 31 32 34 34 34 33 33 31 28 27 26 24 17 10 6 6 8 10 11 9 8 8 8 8 10 11 13 13 11
14 15 14 18 16 17 18 21 25 27 29 29 30 30 29 31 33 33 32 32 33 29 26 26 26 24 20 7 6 7 10 12 12 11 10 9 10 10 10 13 13 14 15
15 16 16 17 18 15 18 21 24 25 27 29 30 31 31 32 32 33 32 31 32 31 33 31 29 25 7 5 5 10 13 13 13 12 12 11 10 9 11 12 13 12 18
16 16 18 18 17 19 20 23 24 24 26 28 30 31 31 32 32 33 32 29 32 33 33 33 29 16 6 8 8 12 12 12 13 13 12 11 9 9 10 12 14 16 12
16 17 18 20 19 20 22 23 24 25 26 28 28 29 30 30 32 33 32 32 32 31 31 27 18 13 9 8 8 8 10 12 12 12 11 10 9 12 12 14 12 13 13
16 18 18 20 21 22 23 23 24 26 26 26 28 28 28 30 32 32 32 31 28 26 22 19 16 13 10 7 6 8 11 12 11 12 10 10 13 15 15 15 15 18 16
15 17 20 21 23 23 23 24 25 25 24 26 27 26 27 29 30 30 28 25 23 22 19 16 13 10 7 7 8 12 13 12 11 11 11 12 15 15 13 16 17 17 16
15 20 21 22 22 24 24 25 25 25 25 26 25 26 27 29 29 27 20 20 19 18 16 13 12 8 7 8 10 13 13 12 11 11 12 13 13 14 14 15 17 17 16
16 21 22 23 24 24 25 25 24 25 25 25 25 26 27 28 26 23 13 16 15 13 13 12 11 8 8 8 9 11 14 12 11 11 12 12 13 14 16 17 14 14 13
17 21 23 24 24 25 25 25 26 27 25 25 25 26 26 26 25 18 10 12 14 11 13 11 10 8 8 7 7 10 14 12 11 10 11 15 17 18 17 16 12 12 13
19 22 24 25 25 26 26 27 27 26 25 25 25 25 26 25 23 16 9 10 13 12 13 11 7 8 8 6 5 8 10 10 8 8 9 11 13 13 14 13 13 13 15
18 23 24 25 26 27 27 27 27 26 25 25 25 24 25 24 21 14 9 7 9 11 11 10 6 7 7 5 4 5 6 9 7 3 8 11 11 9 9 10 12 13 15
Wind_Direction
353 351 345 346 348 349 354 352 3 8 346 352 353 356 358 358 352 347 344 343 340 339 339 340 340 338 334 332 331 328 325 324 320 321 325 327 325 326 326 327 328 328 328
348 346 349 351 355 3 4 16 25 38 2 4 1 16 7 357 351 348 345 343 341 341 341 339 338 338 335 333 331 329 327 324 324 320 322 322 322 324 324 326 326 326 327
345 346 352 360 6 7 13 23 30 41 24 8 15 8 1 356 351 349 347 346 345 342 342 339 338 337 334 333 329 328 328 325 325 323 321 323 323 324 322 323 323 327 328
344 348 357 6 8 11 16 23 32 39 30 8 4 359 358 356 354 352 350 347 345 343 343 341 340 339 337 334 333 331 331 328 326 323 321 320 320 323 327 331 332 334 334
349 354 357 4 3 8 12 15 30 42 41 8 0 358 359 355 351 347 348 347 345 344 345 344 342 339 337 336 335 332 330 328 329 329 329 329 329 329 334 338 334 334 336
347 349 354 2 4 6 15 17 33 30 18 358 353 354 353 353 352 352 350 349 347 345 343 342 340 340 338 337 337 336 335 333 331 332 332 332 333 338 338 338 335 341 339
345 346 347 350 359 1 8 6 7 1 1 358 354 356 357 358 356 354 352 350 346 344 343 341 341 343 342 342 343 341 340 340 339 338 337 340 342 338 335 332 334 341 332
346 346 345 343 349 358 7 358 351 355 357 356 356 359 358 356 356 352 350 348 345 344 344 343 345 347 348 345 343 343 343 343 344 344 345 345 346 344 337 340 351 342 346
337 342 345 349 347 353 357 353 355 356 354 356 359 358 359 359 354 350 348 347 345 346 349 349 349 352 352 350 348 348 348 349 352 351 358 359 6 43 66 44 52 56 13
331 340 336 341 353 355 0 1 359 359 358 359 359 1 2 358 353 352 350 351 350 350 351 353 355 354 353 354 356 359 357 359 352 354 7 6 15 15 328 46 56 49 301
325 334 345 341 346 355 357 359 3 0 1 2 3 3 1 358 355 355 356 356 355 354 355 355 356 356 357 1 4 4 2 355 360 23 23 17 3 349 335 339 310 229 212
320 333 345 344 338 337 349 355 1 1 1 2 1 360 360 359 359 358 360 359 359 359 359 359 359 359 2 5 6 360 360 5 15 19 22 28 54 262 243 226 214 200 198
327 344 345 337 347 344 343 352 2 5 2 360 359 359 1 4 4 4 4 4 4 4 4 4 4 6 9 10 0 1 15 10 342 356 351 211 219 205 202 195 184 182 192
346 353 354 7 345 353 348 358 0 1 3 3 5 6 7 8 7 8 8 9 10 11 11 14 15 18 19 20 27 43 174 182 222 238 212 201 189 178 172 173 170 172 166
356 2 5 359 356 16 3 3 13 9 8 10 10 11 11 11 11 10 13 15 16 19 24 32 39 47 68 100 148 188 183 174 167 179 183 180 173 170 162 162 154 152 157
8 11 18 10 17 25 37 21 16 17 17 20 20 19 20 17 16 18 22 24 27 36 47 50 51 60 75 134 157 160 155 157 162 168 171 169 164 158 156 154 145 138 142
17 6 8 6 26 54 30 19 16 21 28 25 24 22 22 22 24 26 30 35 41 46 46 50 58 72 119 139 159 140 141 151 157 160 162 161 161 157 154 151 147 146 137
15 33 47 31 59 34 28 22 23 25 25 25 25 25 28 30 33 32 36 48 48 51 55 59 70 98 116 120 132 134 142 147 152 157 161 164 164 162 157 148 148 141 139
3 42 40 55 41 34 28 30 33 33 30 29 31 34 37 39 40 42 49 51 56 60 62 75 96 105 112 121 126 139 144 147 151 155 161 166 167 156 147 145 149 146 142
25 49 46 41 41 32 32 39 40 35 36 40 39 40 45 43 42 48 54 62 73 79 89 95 100 106 113 120 129 140 143 143 146 152 160 166 159 147 144 145 144 140 144
33 40 47 42 36 47 49 44 41 43 47 47 45 52 51 49 49 57 66 78 87 88 95 100 106 111 110 120 128 134 135 135 138 141 145 148 150 153 150 146 142 142 145
46 61 55 53 60 52 49 46 49 51 53 53 57 59 57 55 60 68 89 93 96 100 105 112 114 117 115 127 134 135 131 128 130 133 136 142 147 147 150 148 145 144 146
41 59 50 56 55 57 50 55 57 56 57 59 65 65 63 63 73 81 108 103 105 113 112 117 124 123 128 136 142 142 134 132 134 141 141 144 146 145 144 144 148 147 152
41 59 59 58 57 54 56 61 60 59 64 71 71 73 71 74 83 96 111 115 111 118 115 123 131 131 136 145 140 142 134 136 139 141 144 142 140 141 145 149 157 155 156
49 56 61 56 55 53 59 61 63 65 70 77 76 79 79 81 92 105 113 114 116 118 117 124 142 151 152 150 147 146 137 128 127 138 148 150 148 148 150 154 157 157 152
42 56 54 55 52 58 59 64 67 71 75 82 83 84 85 87 99 116 121 118 121 120 123 124 144 158 170 179 182 171 157 140 134 133 156 156 157 165 168 164 161 154 150